Location: Risskov
(56.1972°N, 10.2480°E)
Time: 13:01:47
(UTC+00:00)

Cosmos 1892 - Pass Details

Date: 05 July 2020
Orbit: 505 x 523 km, 82.5° (Epoch: 07 August)

Event Time Altitude Azimuth Distance (km) Brightness Sun altitude
Exits shadow 21:07:11 - 150° (SSE) 1,905 4.9 -6.0°
Reaches altitude 10° 21:07:42 10° 146° (SE) 1,727 4.7 -6.0°
Maximum altitude 21:10:51 26° 89° (E) 1,050 4.0 -6.3°
Drops below altitude 10° 21:14:02 10° 33° (NNE) 1,747 5.8 -6.5°
Sets 21:16:25 0° 20° (NNE) 2,643 6.9 -6.6°
